This is the latest recevied weather packets stored in our database for station/object C31FR-13. If no packets are shown the sender has not sent any weather packets the latest 10 day(s).
| Time | Temp. | Humidity | Pressure | Rain* | Wind** | Luminosity | Snow |
|---|---|---|---|---|---|---|---|
| 1778004963 | 11.67° C | 75% | 1010.3 hPa | - | - | - | - |
| 1778004663 | 11.67° C | 74% | 1010.3 hPa | - | - | - | - |
| 1778004363 | 11.67° C | 71% | 1010.3 hPa | - | - | - | - |
| 1778004063 | 11.67° C | 71% | 1010.3 hPa | - | - | - | - |
| 1778003762 | 12.22° C | 64% | 1010.3 hPa | - | - | - | - |
| 1778003463 | 12.22° C | 73% | 1010.3 hPa | - | - | - | - |
| 1778002862 | 12.78° C | 69% | 1010.3 hPa | - | - | - | - |
| 1778002562 | 12.78° C | 70% | 1010.3 hPa | - | - | - | - |
| 1778002263 | 12.78° C | 70% | 1010.3 hPa | - | - | - | - |
| 1778001963 | 12.78° C | 59% | 1010.3 hPa | - | - | - | - |
| 1778001662 | 13.33° C | 58% | 1010.4 hPa | - | - | - | - |
| 1778001362 | 13.33° C | 59% | 1010.5 hPa | - | - | - | - |
| 1778000763 | 13.89° C | 56% | 1010.7 hPa | - | - | - | - |
| 1778000463 | 14.44° C | 57% | 1010.7 hPa | - | - | - | - |
| 1777999862 | 13.89° C | 59% | 1010.9 hPa | - | - | - | - |
| 1777999563 | 13.89° C | 60% | 1010.9 hPa | - | - | - | - |
| 1777999262 | 13.33° C | 62% | 1011 hPa | - | - | - | - |
| 1777998963 | 12.78° C | 64% | 1011.1 hPa | - | - | - | - |
| 1777998663 | 12.78° C | 67% | 1011.1 hPa | - | - | - | - |
| 1777998363 | 12.78° C | 67% | 1011.1 hPa | - | - | - | - |
| 1777998062 | 12.22° C | 71% | 1011.3 hPa | - | - | - | - |
| 1777997763 | 11.67° C | 73% | 1011.4 hPa | - | - | - | - |
| 1777997463 | 11.67° C | 69% | 1011.5 hPa | - | - | - | - |
| 1777997163 | 11.67° C | 69% | 1011.5 hPa | - | - | - | - |
| 1777996863 | 11.67° C | 72% | 1011.5 hPa | - | - | - | - |
* Rain since midnight (hover to see other rain measurements)
** Current wind speed in m/s (hover to see current wind gust speed)